| time (UTC) | temp F | wind direction | speed knots | gust knots | rain 1hr in | rain 24hr in | rain mn in | humidity % | barometer mb |
| 20260505084703 | 50 | 357 | 0.0 | 0.0 | 0.00 | 0.00 | 0.00 | 94 | 1006.1 |
| 20260505084202 | 50 | 359 | 0.0 | 0.0 | 0.00 | 0.00 | 0.00 | 92 | 1006.2 |
| 20260505083658 | 51 | 359 | 0.0 | 0.0 | 0.00 | 0.00 | 0.00 | 91 | 1006.2 |
| 20260505083155 | 51 | 16 | 0.0 | 0.0 | 0.00 | 0.00 | 0.00 | 90 | 1006.1 |
| 20260505082651 | 51 | 12 | 0.0 | 0.0 | 0.00 | 0.00 | 0.00 | 91 | 1006.1 |
| 20260505082148 | 50 | 8 | 0.0 | 0.0 | 0.00 | 0.00 | 0.00 | 94 | 1006.2 |
| 20260505081644 | 50 | 359 | 0.0 | 0.0 | 0.00 | 0.00 | 0.00 | 95 | 1006.1 |
| 20260505081142 | 50 | 7 | 0.0 | 0.0 | 0.00 | 0.00 | 0.00 | 95 | 1006.0 |
| 20260505080638 | 49 | 14 | 0.0 | 0.0 | 0.00 | 0.00 | 0.00 | 96 | 1005.9 |
| 20260505080134 | 48 | 354 | 0.0 | 0.9 | 0.00 | 0.00 | 0.00 | 98 | 1006.1 |
| 20260505075631 | 48 | 352 | 0.0 | 0.0 | 0.00 | 0.00 | 0.00 | 99 | 1006.1 |
| 20260505075127 | 48 | 351 | 0.0 | 0.0 | 0.00 | 0.00 | 0.00 | 99 | 1005.9 |
| 20260505074624 | 47 | 352 | 0.0 | 0.0 | 0.00 | 0.00 | 0.00 | 99 | 1006.0 |
| 20260505074121 | 47 | 352 | 0.0 | 0.0 | 0.00 | 0.00 | 0.00 | 99 | 1005.9 |
| 20260505073619 | 47 | 352 | 0.0 | 0.0 | 0.00 | 0.00 | 0.00 | 99 | 1005.7 |
| 20260505073117 | 46 | 352 | 0.0 | 0.0 | 0.00 | 0.00 | 0.00 | 99 | 1005.7 |
| 20260505072612 | 46 | 352 | 0.0 | 0.0 | 0.00 | 0.00 | 0.00 | 99 | 1005.9 |
| 20260505072109 | 46 | 352 | 0.0 | 0.0 | 0.00 | 0.00 | 0.00 | 99 | 1005.7 |
| 20260505071604 | 46 | 352 | 0.0 | 0.0 | 0.00 | 0.00 | 0.00 | 99 | 1005.8 |
| 20260505071103 | 45 | 352 | 0.0 | 0.0 | 0.00 | 0.00 | 0.00 | 99 | 1005.8 |
| 20260505070600 | 45 | 352 | 0.0 | 0.0 | 0.00 | 0.00 | 0.00 | 99 | 1005.7 |
| 20260505070056 | 45 | 352 | 0.0 | 0.0 | 0.00 | 0.00 | 0.00 | 99 | 1005.8 |
| 20260505065552 | 45 | 352 | 0.0 | 0.0 | 0.00 | 0.00 | 0.00 | 99 | 1006.0 |
| 20260505065049 | 45 | 352 | 0.0 | 0.0 | 0.00 | 0.00 | 0.00 | 99 | 1005.8 |
| 20260505064545 | 45 | 352 | 0.0 | 0.0 | 0.00 | 0.00 | 0.00 | 99 | 1005.8 |
| 20260505064044 | 45 | 352 | 0.0 | 0.0 | 0.00 | 0.00 | 0.00 | 99 | 1005.9 |
| 20260505063541 | 45 | 352 | 0.0 | 0.0 | 0.00 | 0.00 | 0.00 | 99 | 1006.0 |
| 20260505063037 | 45 | 352 | 0.0 | 0.0 | 0.00 | 0.00 | 0.00 | 99 | 1006.0 |
| 20260505062533 | 45 | 352 | 0.0 | 0.0 | 0.00 | 0.00 | 0.00 | 99 | 1006.1 |
| 20260505062031 | 45 | 352 | 0.0 | 0.0 | 0.00 | 0.00 | 0.00 | 99 | 1005.9 |
| 20260505061528 | 45 | 352 | 0.0 | 0.0 | 0.00 | 0.00 | 0.00 | 99 | 1006.2 |
| 20260505061026 | 45 | 352 | 0.0 | 0.0 | 0.00 | 0.00 | 0.00 | 99 | 1006.2 |
| 20260505060523 | 45 | 352 | 0.0 | 0.0 | 0.00 | 0.00 | 0.00 | 98 | 1006.1 |
| 20260505060020 | 45 | 352 | 0.0 | 0.0 | 0.00 | 0.00 | 0.00 | 98 | 1006.0 |
| 20260505055515 | 46 | 352 | 0.0 | 0.0 | 0.00 | 0.00 | 0.00 | 98 | 1005.9 |
| 20260505055012 | 45 | 352 | 0.0 | 0.0 | 0.00 | 0.00 | 0.00 | 98 | 1006.3 |
| 20260505054509 | 45 | 352 | 0.0 | 0.0 | 0.00 | 0.00 | 0.00 | 98 | 1006.0 |
| 20260505054008 | 46 | 352 | 0.0 | 0.0 | 0.00 | 0.00 | 0.00 | 98 | 1006.1 |
| 20260505053504 | 46 | 352 | 0.0 | 0.0 | 0.00 | 0.00 | 0.00 | 98 | 1006.0 |
| 20260505053000 | 46 | 352 | 0.0 | 0.0 | 0.00 | 0.00 | 0.00 | 98 | 1005.9 |
| 20260505052458 | 46 | 352 | 0.0 | 0.0 | 0.00 | 0.00 | 0.00 | 98 | 1006.1 |
| 20260505051955 | 46 | 352 | 0.0 | 0.0 | 0.00 | 0.00 | 0.00 | 98 | 1006.0 |
| 20260505051452 | 46 | 352 | 0.0 | 0.0 | 0.00 | 0.00 | 0.00 | 98 | 1005.8 |
| 20260505050950 | 46 | 352 | 0.0 | 0.0 | 0.00 | 0.00 | 0.00 | 97 | 1006.1 |
| 20260505050448 | 46 | 352 | 0.0 | 0.0 | 0.00 | 0.00 | 0.00 | 97 | 1005.9 |
| 20260505041416 | 47 | 352 | 0.0 | 0.0 | 0.00 | 0.00 | 0.00 | 96 | 1006.1 |
| 20260505040913 | 48 | 352 | 0.0 | 0.0 | 0.00 | 0.00 | 0.00 | 96 | 1006.3 |
| 20260505040411 | 48 | 352 | 0.0 | 0.0 | 0.00 | 0.00 | 0.00 | 96 | 1006.4 |
| 20260505035907 | 48 | 352 | 0.0 | 0.0 | 0.00 | 0.00 | 0.00 | 96 | 1006.4 |
| 20260505035403 | 48 | 352 | 0.0 | 0.0 | 0.00 | 0.00 | 0.00 | 96 | 1006.2 |
| 20260505034900 | 48 | 352 | 0.0 | 0.0 | 0.00 | 0.00 | 0.00 | 95 | 1006.3 |
| 20260505034357 | 48 | 352 | 0.0 | 0.0 | 0.00 | 0.00 | 0.00 | 95 | 1006.2 |
| 20260505033854 | 48 | 352 | 0.0 | 0.0 | 0.00 | 0.00 | 0.00 | 95 | 1006.1 |
| 20260505033350 | 48 | 352 | 0.0 | 0.0 | 0.00 | 0.00 | 0.00 | 95 | 1006.4 |
| 20260505032849 | 48 | 352 | 0.0 | 0.0 | 0.00 | 0.00 | 0.00 | 94 | 1006.4 |
| 20260505032345 | 48 | 352 | 0.0 | 0.0 | 0.00 | 0.00 | 0.00 | 94 | 1006.5 |
| 20260505031842 | 48 | 352 | 0.0 | 0.0 | 0.00 | 0.00 | 0.00 | 94 | 1006.2 |
| 20260505031339 | 49 | 352 | 0.0 | 0.0 | 0.00 | 0.00 | 0.00 | 93 | 1006.3 |
| 20260505030836 | 49 | 352 | 0.0 | 0.0 | 0.00 | 0.00 | 0.00 | 94 | 1006.1 |
| 20260505030332 | 49 | 352 | 0.0 | 0.0 | 0.00 | 0.00 | 0.00 | 93 | 1006.3 |
| 20260505025827 | 49 | 352 | 0.0 | 0.0 | 0.00 | 0.00 | 0.00 | 93 | 1006.5 |
| 20260505025325 | 50 | 352 | 0.0 | 0.0 | 0.00 | 0.00 | 0.00 | 92 | 1006.4 |
| 20260505024824 | 50 | 352 | 0.0 | 0.0 | 0.00 | 0.00 | 0.00 | 92 | 1006.4 |
| 20260505024321 | 50 | 352 | 0.0 | 0.0 | 0.00 | 0.00 | 0.00 | 92 | 1006.5 |
| 20260505023818 | 50 | 351 | 0.0 | 0.0 | 0.00 | 0.00 | 0.00 | 92 | 1006.6 |
| 20260505023315 | 50 | 351 | 0.0 | 0.0 | 0.00 | 0.00 | 0.00 | 92 | 1006.6 |
| 20260505022812 | 51 | 351 | 0.0 | 0.0 | 0.00 | 0.00 | 0.00 | 92 | 1006.7 |
| 20260505022309 | 51 | 351 | 0.0 | 0.0 | 0.00 | 0.00 | 0.00 | 91 | 1006.8 |
| 20260505021806 | 51 | 351 | 0.0 | 0.0 | 0.00 | 0.00 | 0.00 | 89 | 1006.5 |
| 20260505021303 | 52 | 351 | 0.0 | 0.0 | 0.00 | 0.00 | 0.00 | 88 | 1006.6 |
| 20260505020759 | 53 | 351 | 0.0 | 0.0 | 0.00 | 0.00 | 0.00 | 87 | 1006.7 |
| 20260505020254 | 54 | 351 | 0.0 | 0.0 | 0.00 | 0.00 | 0.00 | 86 | 1006.7 |
| 20260505015752 | 53 | 352 | 0.0 | 0.0 | 0.00 | 0.00 | 0.00 | 87 | 1006.4 |
| 20260505015248 | 54 | 351 | 0.0 | 0.0 | 0.00 | 0.00 | 0.00 | 86 | 1006.6 |
| 20260505014746 | 55 | 351 | 0.0 | 0.0 | 0.00 | 0.00 | 0.00 | 85 | 1006.5 |
| 20260505014243 | 55 | 352 | 0.0 | 0.0 | 0.00 | 0.00 | 0.00 | 84 | 1006.4 |
| 20260505013739 | 55 | 351 | 0.0 | 0.0 | 0.00 | 0.00 | 0.00 | 84 | 1006.3 |
| 20260505013237 | 55 | 351 | 0.0 | 0.0 | 0.00 | 0.00 | 0.00 | 83 | 1006.2 |
| 20260505012734 | 55 | 351 | 0.0 | 0.0 | 0.00 | 0.00 | 0.00 | 83 | 1006.3 |
| 20260505012232 | 56 | 351 | 0.0 | 0.0 | 0.00 | 0.00 | 0.00 | 83 | 1006.3 |
| 20260505011727 | 57 | 351 | 0.0 | 0.0 | 0.00 | 0.00 | 0.00 | 83 | 1006.1 |
| 20260505011225 | 57 | 351 | 0.0 | 0.0 | 0.00 | 0.00 | 0.00 | 80 | 1006.2 |
| 20260505010720 | 58 | 351 | 0.0 | 0.0 | 0.00 | 0.00 | 0.00 | 78 | 1006.1 |
| 20260505010217 | 59 | 351 | 0.0 | 0.0 | 0.00 | 0.00 | 0.00 | 76 | 1005.9 |
| 20260505005713 | 59 | 351 | 0.0 | 0.0 | 0.00 | 0.00 | 0.00 | 75 | 1005.7 |
| 20260505005210 | 60 | 351 | 0.0 | 0.0 | 0.00 | 0.00 | 0.00 | 73 | 1005.8 |
| 20260505004707 | 61 | 351 | 0.0 | 0.0 | 0.00 | 0.00 | 0.00 | 72 | 1005.7 |
| 20260505004204 | 62 | 351 | 0.0 | 0.0 | 0.00 | 0.00 | 0.00 | 70 | 1005.5 |
| 20260505003701 | 62 | 351 | 0.0 | 0.0 | 0.00 | 0.00 | 0.00 | 67 | 1005.7 |
| 20260505003159 | 64 | 359 | 0.0 | 0.0 | 0.00 | 0.00 | 0.00 | 67 | 1005.6 |
| 20260505002655 | 65 | 353 | 0.0 | 0.0 | 0.00 | 0.00 | 0.00 | 64 | 1005.4 |
| 20260505002153 | 65 | 1 | 0.0 | 0.0 | 0.00 | 0.00 | 0.00 | 58 | 1005.5 |
| 20260505001649 | 66 | 349 | 0.0 | 0.0 | 0.00 | 0.00 | 0.00 | 55 | 1005.4 |
| 20260505001147 | 66 | 4 | 0.0 | 0.0 | 0.00 | 0.00 | 0.00 | 56 | 1005.6 |
| 20260505000644 | 66 | 357 | 0.0 | 0.0 | 0.00 | 0.00 | 0.00 | 56 | 1005.3 |
| 20260505000142 | 67 | 66 | 1.7 | 1.7 | 0.00 | 0.00 | 0.00 | 52 | 1005.3 |
| 20260504235638 | 67 | 3 | 0.0 | 0.0 | 0.00 | 0.00 | 0.00 | 57 | 1005.5 |
| 20260504235134 | 68 | 357 | 0.0 | 0.0 | 0.00 | 0.00 | 0.00 | 56 | 1005.1 |
| 20260504234632 | 69 | 344 | 0.0 | 0.9 | 0.00 | 0.00 | 0.00 | 56 | 1005.1 |
| 20260504234129 | 68 | 359 | 0.0 | 0.0 | 0.00 | 0.00 | 0.00 | 61 | 1005.3 |
| 20260504233625 | 69 | 352 | 0.0 | 0.0 | 0.00 | 0.00 | 0.00 | 56 | 1005.1 |
| 20260504233121 | 69 | 11 | 0.0 | 0.0 | 0.00 | 0.00 | 0.00 | 58 | 1005.0 |
| 20260504232619 | 69 | 3 | 0.0 | 0.0 | 0.00 | 0.00 | 0.00 | 51 | 1005.2 |
| 20260504232116 | 69 | 356 | 0.0 | 0.0 | 0.00 | 0.00 | 0.00 | 53 | 1005.1 |
| 20260504231612 | 70 | 336 | 0.0 | 0.9 | 0.00 | 0.00 | 0.00 | 56 | 1005.0 |
| 20260504231108 | 71 | 321 | 0.9 | 1.7 | 0.00 | 0.00 | 0.00 | 49 | 1005.1 |
| 20260504230604 | 71 | 359 | 0.0 | 0.0 | 0.00 | 0.00 | 0.00 | 49 | 1004.9 |
| 20260504230104 | 71 | 307 | 1.7 | 2.6 | 0.00 | 0.00 | 0.00 | 45 | 1005.0 |
| 20260504225601 | 72 | 280 | 0.9 | 1.7 | 0.00 | 0.00 | 0.00 | 44 | 1005.3 |
| 20260504225057 | 72 | 352 | 1.7 | 1.7 | 0.00 | 0.00 | 0.00 | 46 | 1004.9 |
| 20260504224554 | 72 | 12 | 0.0 | 0.9 | 0.00 | 0.00 | 0.00 | 44 | 1005.0 |
| 20260504224051 | 72 | 300 | 0.0 | 0.9 | 0.00 | 0.00 | 0.00 | 44 | 1004.9 |
| 20260504223548 | 73 | 354 | 0.0 | 0.0 | 0.00 | 0.00 | 0.00 | 44 | 1005.1 |
| 20260504223044 | 73 | 1 | 0.0 | 0.0 | 0.00 | 0.00 | 0.00 | 45 | 1005.1 |
| 20260504222541 | 73 | 353 | 0.0 | 0.0 | 0.00 | 0.00 | 0.00 | 43 | 1004.8 |
| 20260504222038 | 73 | 358 | 0.9 | 0.9 | 0.00 | 0.00 | 0.00 | 41 | 1004.8 |
| 20260504221535 | 73 | 348 | 0.0 | 0.0 | 0.00 | 0.00 | 0.00 | 43 | 1004.8 |
| 20260504221032 | 74 | 351 | 1.7 | 1.7 | 0.00 | 0.00 | 0.00 | 41 | 1004.8 |
| 20260504220529 | 74 | 342 | 0.0 | 0.9 | 0.00 | 0.00 | 0.00 | 44 | 1004.8 |
| 20260504220026 | 74 | 358 | 0.0 | 0.9 | 0.00 | 0.00 | 0.00 | 43 | 1004.8 |
| 20260504215522 | 74 | 330 | 0.0 | 0.0 | 0.00 | 0.00 | 0.00 | 42 | 1004.8 |
| 20260504215020 | 75 | 211 | 3.5 | 5.2 | 0.00 | 0.00 | 0.00 | 39 | 1004.4 |
| 20260504214516 | 76 | 305 | 1.7 | 2.6 | 0.00 | 0.00 | 0.00 | 40 | 1004.7 |
| 20260504214012 | 76 | 282 | 0.9 | 1.7 | 0.00 | 0.00 | 0.00 | 38 | 1004.7 |
| 20260504213508 | 76 | 310 | 1.7 | 2.6 | 0.00 | 0.00 | 0.00 | 38 | 1004.4 |
| 20260504213006 | 76 | 340 | 0.0 | 0.0 | 0.00 | 0.00 | 0.00 | 39 | 1004.4 |
| 20260504212501 | 77 | 328 | 1.7 | 2.6 | 0.00 | 0.00 | 0.00 | 37 | 1004.5 |
| 20260504211959 | 77 | 303 | 0.9 | 0.9 | 0.00 | 0.00 | 0.00 | 37 | 1004.1 |
| 20260504211455 | 76 | 322 | 0.0 | 0.0 | 0.00 | 0.00 | 0.00 | 40 | 1004.7 |
| 20260504210953 | 76 | 335 | 3.5 | 5.2 | 0.00 | 0.00 | 0.00 | 36 | 1004.3 |
| 20260504210450 | 76 | 316 | 0.0 | 0.9 | 0.00 | 0.00 | 0.00 | 38 | 1004.7 |
| 20260504205947 | 76 | 308 | 0.9 | 1.7 | 0.00 | 0.00 | 0.00 | 38 | 1004.3 |
| 20260504205444 | 75 | 81 | 1.7 | 3.5 | 0.00 | 0.00 | 0.00 | 37 | 1004.3 |
| 20260504204942 | 76 | 6 | 0.0 | 0.9 | 0.00 | 0.00 | 0.00 | 39 | 1004.3 |
| 20260504204440 | 77 | 300 | 0.9 | 1.7 | 0.00 | 0.00 | 0.00 | 37 | 1004.2 |
| 20260504203939 | 77 | 315 | 0.9 | 0.9 | 0.00 | 0.00 | 0.00 | 36 | 1004.3 |
| 20260504203436 | 76 | 339 | 0.0 | 0.0 | 0.00 | 0.00 | 0.00 | 38 | 1004.5 |
| 20260504202932 | 75 | 314 | 3.5 | 3.5 | 0.00 | 0.00 | 0.00 | 37 | 1004.4 |
| 20260504202429 | 75 | 359 | 0.0 | 0.9 | 0.00 | 0.00 | 0.00 | 37 | 1004.7 |
| 20260504201926 | 75 | 341 | 0.9 | 0.9 | 0.00 | 0.00 | 0.00 | 36 | 1004.5 |
| 20260504201423 | 74 | 342 | 1.7 | 2.6 | 0.00 | 0.00 | 0.00 | 38 | 1004.5 |
| 20260504200921 | 75 | 329 | 1.7 | 2.6 | 0.00 | 0.00 | 0.00 | 39 | 1004.7 |
| 20260504200417 | 77 | 288 | 1.7 | 1.7 | 0.00 | 0.00 | 0.00 | 35 | 1004.7 |
| 20260504195914 | 75 | 209 | 1.7 | 2.6 | 0.00 | 0.00 | 0.00 | 37 | 1004.8 |
| 20260504195409 | 76 | 337 | 0.9 | 0.9 | 0.00 | 0.00 | 0.00 | 37 | 1004.9 |
| 20260504194907 | 77 | 311 | 1.7 | 1.7 | 0.00 | 0.00 | 0.00 | 36 | 1005.1 |
| 20260504194402 | 76 | 2 | 0.9 | 1.7 | 0.00 | 0.00 | 0.00 | 35 | 1005.1 |
| 20260504193858 | 74 | 359 | 2.6 | 2.6 | 0.00 | 0.00 | 0.00 | 38 | 1005.2 |
| 20260504193356 | 74 | 4 | 0.0 | 0.0 | 0.00 | 0.00 | 0.00 | 37 | 1005.3 |
| 20260504192855 | 74 | 280 | 3.5 | 3.5 | 0.00 | 0.00 | 0.00 | 37 | 1005.5 |
| 20260504192352 | 73 | 331 | 0.9 | 0.9 | 0.00 | 0.00 | 0.00 | 37 | 1005.3 |
| 20260504191850 | 73 | 274 | 1.7 | 1.7 | 0.00 | 0.00 | 0.00 | 38 | 1005.4 |
| 20260504191348 | 73 | 328 | 0.9 | 1.7 | 0.00 | 0.00 | 0.00 | 37 | 1005.5 |
| 20260504190843 | 73 | 10 | 0.0 | 0.9 | 0.00 | 0.00 | 0.00 | 40 | 1005.6 |
| 20260504190339 | 73 | 322 | 1.7 | 1.7 | 0.00 | 0.00 | 0.00 | 39 | 1005.7 |
| 20260504185836 | 73 | 15 | 0.0 | 0.9 | 0.00 | 0.00 | 0.00 | 38 | 1005.9 |
| 20260504185333 | 73 | 48 | 1.7 | 2.6 | 0.00 | 0.00 | 0.00 | 39 | 1006.0 |
| 20260504184829 | 73 | 355 | 0.0 | 0.9 | 0.00 | 0.00 | 0.00 | 39 | 1006.1 |
| 20260504184325 | 73 | 321 | 0.9 | 1.7 | 0.00 | 0.00 | 0.00 | 38 | 1005.9 |
| 20260504183820 | 73 | 13 | 2.6 | 3.5 | 0.00 | 0.00 | 0.00 | 38 | 1006.1 |
| 20260504183318 | 74 | 346 | 0.9 | 1.7 | 0.00 | 0.00 | 0.00 | 35 | 1005.9 |
| 20260504182816 | 75 | 38 | 0.9 | 0.9 | 0.00 | 0.00 | 0.00 | 38 | 1006.0 |
| 20260504182313 | 75 | 335 | 1.7 | 2.6 | 0.00 | 0.00 | 0.00 | 35 | 1005.9 |
| 20260504181810 | 74 | 272 | 0.9 | 0.9 | 0.00 | 0.00 | 0.00 | 34 | 1005.8 |
| 20260504181307 | 75 | 231 | 3.5 | 3.5 | 0.00 | 0.00 | 0.00 | 34 | 1005.9 |
| 20260504180806 | 75 | 252 | 3.5 | 3.5 | 0.00 | 0.00 | 0.00 | 36 | 1006.1 |
| 20260504180305 | 74 | 329 | 2.6 | 2.6 | 0.00 | 0.00 | 0.00 | 40 | 1006.2 |
| 20260504175802 | 75 | 281 | 3.5 | 3.5 | 0.00 | 0.00 | 0.00 | 34 | 1006.5 |
| 20260504175259 | 74 | 336 | 0.9 | 0.9 | 0.00 | 0.00 | 0.00 | 35 | 1006.3 |
| 20260504174757 | 75 | 210 | 1.7 | 1.7 | 0.00 | 0.00 | 0.00 | 39 | 1006.4 |
| 20260504174254 | 74 | 125 | 1.7 | 1.7 | 0.00 | 0.00 | 0.00 | 39 | 1006.5 |
| 20260504173750 | 74 | 292 | 3.5 | 3.5 | 0.00 | 0.00 | 0.00 | 35 | 1006.5 |
| 20260504173248 | 75 | 337 | 1.7 | 1.7 | 0.00 | 0.00 | 0.00 | 36 | 1006.3 |
| 20260504172744 | 75 | 352 | 0.9 | 0.9 | 0.00 | 0.00 | 0.00 | 43 | 1006.7 |
| 20260504172241 | 73 | 320 | 0.9 | 0.9 | 0.00 | 0.00 | 0.00 | 40 | 1006.7 |
| 20260504171737 | 73 | 334 | 1.7 | 2.6 | 0.00 | 0.00 | 0.00 | 37 | 1006.8 |
| 20260504171234 | 74 | 284 | 0.9 | 0.9 | 0.00 | 0.00 | 0.00 | 35 | 1006.8 |
| 20260504170731 | 73 | 314 | 1.7 | 1.7 | 0.00 | 0.00 | 0.00 | 35 | 1007.1 |
| 20260504170229 | 74 | 296 | 2.6 | 2.6 | 0.00 | 0.00 | 0.00 | 40 | 1007.1 |
| 20260504160147 | 68 | 338 | 3.5 | 3.5 | 0.00 | 0.00 | 0.00 | 42 | 1008.2 |
| 20260504151114 | 69 | 116 | 2.6 | 3.5 | 0.00 | 0.00 | 0.00 | 37 | 1008.6 |
| 20260504150612 | 68 | 79 | 0.9 | 1.7 | 0.00 | 0.00 | 0.00 | 40 | 1008.5 |
| 20260504150109 | 68 | 277 | 1.7 | 2.6 | 0.00 | 0.00 | 0.00 | 45 | 1008.4 |
| 20260504141037 | 66 | 10 | 0.0 | 0.9 | 0.00 | 0.00 | 0.00 | 41 | 1008.5 |
| 20260504140534 | 65 | 35 | 0.9 | 0.9 | 0.00 | 0.00 | 0.00 | 41 | 1008.6 |
| 20260504130458 | 62 | 331 | 1.7 | 1.7 | 0.00 | 0.00 | 0.00 | 47 | 1009.1 |
| 20260504110345 | 42 | 8 | 0.0 | 0.0 | 0.00 | 0.00 | 0.00 | 89 | 1009.6 |
| 20260504100303 | 41 | 10 | 0.0 | 0.0 | 0.00 | 0.00 | 0.00 | 92 | 1009.9 |